BEIDOU-3 M1 (C19)

Last updated on Thu Sep 11 2025 00:03:27 GMT+0000 (Coordinated Universal Time)

1 43001U 17069A 25251.23173446 .00000020 00000+0 00000+0 0 9996 2 43001 56.4427 72.3885 0007295 318.6501 41.3515 1.86231139 53357
UTC large
Height (km)
Speed (km/s)
/
Latitude / Longitude
Inclination (degrees)
Orbital Period (minutes)
Azimuth
Elevation
Range (km)
Doppler Factor

Next 0 passes for location: London (51.5072 / 0.1276)

Sorry there are no passes over London.